Showing default

JACKAL-01, 59127

Orbit data source: Space-Track

JACKAL-01, 59127 is a payload satellite owned by True Anomaly (US) in SSO that was launched on Mon, 04 Mar 2024 UTC via an FALCON 9 launch vehicle from the Air Force Western Test Range (AFWTR). Payload-class satellites include a variety of spacecraft equipped with specific instruments for various scientific and technological missions. These include communications satellites like Starlink; space stations such as the ISS; scientific satellites like the Hubble; Earth observation satellites from companies like Planet Labs, Umbra, and HawkEye 360; GPS; miniature CubeSats for education and research; and military/defense satellites.

Loading next visibility...
Identifier
59127, 2024-043AF
Orbit
SSO
Country
Flag of USUS
Related business
Manufacturer
True Anomaly
Mission
Operational Commercial Technology
Bus & Motor
JACKAL, Unknown motor
Mass
275 kg wet, 275 kg dry
Launch date (UTC)
2024-03-04 (2 years ago)
Launch vehicle
FALCON 9
Launch site
Air Force Western Test Range (AFWTR)
Object type
Payload
Rocket body
Debris
Shape & HBR
Box + 2 Pan, 3.0 m
Radar Cross Section
1.240 m², Medium (>0.1 m² and < 1m²)

Expand to show TLE details & history
Last TLE update: 15 hours ago

TLE from 15 hours ago
0 JACKAL-01
1 59127U 24043AF  26129.96174286  .00010909  00000-0  24617-3 0  9992
2 59127  97.5536 273.4854 0006672   5.7930 354.3394 15.43386027121654
Epoch: 2026-05-09T23:04Z
TLE epoch observation values (Epoch: 2026-05-09T23:04:54.583Z)
Latitude
0.00007°
Longitude
59.4863°
Altitude
434.717 km
Speed
7.653 km/s
True Right ascension
18h 13m 56s
True Declination
0° 00' 00"
Sunlit
Object was in full shadow at epoch
Visualization orbit readout
Latitude
Unknown
Longitude
Unknown
Altitude
Unknown
Speed
Unknown
Apparent Right ascension
Unknown
Apparent Declination
Unknown
Sunlit
N/A
Visualization observer readout
Local Sidereal Time
22:12:51
Azimuth
Unknown
Elevation
Unknown
Doppler factor
Unknown
Orbital elements
Apogee altitude
437.61 km
Perigee altitude
428.521 km
Semi-major axis
6,811.203 km
Eccentricity
0.00067
Inclination
97.5536°
RAAN
273.4854°
Arg. of periapsis
5.793°
True anomaly
354.33185°
Mean anomaly
354.3394°
Eccentric anomaly
354.33563°
Mean motion
3.86107 °/min
Orbital period
93.24 mins
BSTAR
0.00024617
Loading maneuver chart data...
Computing Atmospheric mass density...
Loading historical data...
Loading historical data...
Loading historical data...
Loading historical data...
Loading historical data...
Loading historical data...
Loading historical data...

Documentation

Showing up to 5 results
|